Location: Misciano
(43.5000°N, 11.9500°E)
Time: 08:05:02
(UTC+00:00)

Cosmos 839 Rocket - Pass Details

Date: 13 August 2020
Orbit: 958 x 2095 km, 65.9° (Epoch: 26 September)

Event Time Altitude Azimuth Distance (km) Brightness Sun altitude
Exits shadow 22:23:49 73° 205° (SSW) 1,306 4.4 -30.9°
Maximum altitude 22:24:42 88° 121° (ESE) 1,285 4.4 -31.0°
Drops below altitude 10° 22:33:43 10° 33° (NNE) 3,742 7.5 -31.4°
Sets 22:37:06 0° 34° (NE) 4,897 8.2 -31.5°
